OneWeb SL0027

operational
NORAD ID: 45432 Int'l Des: 2020-020 Owner: ONEWEB Country: UK Constellation: oneweb
LEOCIRCULARPOLARONEWEB_TYPE

OneWeb SL0027について

説明を読み込み中...

リアルタイム位置

3D地球を読み込み中...

次回通過

高度履歴

Altitude vs Time

uPlot chart will show altitude changes over time

軌道要素

1 45432U 20020J 25303.75083142 .00000051 00000-0 98050-4 0 9997
2 45432 87.9128 51.4617 0002039 92.6684 267.4681 13.17650524276146
Epoch: Oct 30, 2025 • Age: 13 hours

現在のステータス

高度 1200.7 km
速度 7.26 km/s
衛星直下点 50.69°N, 91.44°W
打ち上げ日 Mar 21, 2020
運用期間 5.6 years
タイプ internet

技術仕様

分類 Payload
質量 148.00 kg
乾燥質量 140.00 kg
総質量 148.00 kg
長さ 1.30 m
直径 1.00 m
スパン 5.00 m
形状 Trapezoid+2 pan
製造者 ONEWUS
バスタイプ ARROW
フェーズステータス In Orbit
所有者/国 ONEWEB/UK

大規模コンステレーション

Loading constellations...